Content
SEND FEEDBACK

Daily
Averages
Monthly
Summary
United States of America

VAL VERDE PARK, TEXAS


Home > North America > United States > Texas
Elevation: 1082 feet     Latitude: 29 22N     Longitude: 100 47W

WEATHER
 
SELECT A DAY
Number of Records: 185,994;   Date Range: 1/1/95 - 9/30/14
 
SHARE

PRINT THIS DATA

[ ← Previous Day ]
WEATHER ALMANAC - FEBRUARY 13, 2013
[ Next Day → ]
[ °C ]   °F
Weather ElementAverageHighLow
Temperature51.5 °F66 °F (4:55 pm)36.9 °F (6:55 am)
Dewpoint25.2 °F31.5 °F (8:55 am)19.9 °F (3:55 pm)
Humidity40.2 %72 % (6:55 am)17 % (4:55 pm)
Barometer30.09 in30.18 in (8:55 am)29.99 in (4:55 pm)
Wind Speed5.7 mph12.7 mph (4:55 am)
Weather ElementAverage
Visibility9.9 mi
Wind DirectionSSW (203.5 °)

Weather ElementTotal
Precipitation---
Heating Degree Days13.6 (Base 65)
Growing Degree Days1.5 (Base 50)
Averaged from 23 records on February 13, 2013
WEATHER CONDITIONS BREAKOUT
WIND DIRECTION BREAKOUT
WEATHER BY HOUR - FEBRUARY 13, 2013
[ °C ]   °F
Local TimeTemperatureDewpointHumidityBarometerVisibilityWind DirectionWind SpeedGust SpeedPrecipitationEventsConditions
1:55 AM45.5 °F27.3 °F49 %30.11 in10.0 miNW (320°)6.9 mphClear
2:55 AM43.3 °F27.7 °F54 %30.11 in10.0 miWNW (300°)10.4 mphClear
3:55 AM42.6 °F28.4 °F57 %30.12 in10.0 miNW (310°)10.4 mphClear
4:55 AM40.6 °F28.2 °F61 %30.12 in10.0 miNW (310°)12.7 mphClear
5:55 AM39.7 °F29.3 °F66 %30.13 in10.0 miNW (310°)8.1 mphClear
6:55 AM36.9 °F28.8 °F72 %30.16 in10.0 miNW (310°)8.1 mphClear
7:55 AM38.7 °F30.2 °F72 %30.17 in10.0 miWNW (300°)11.5 mphClear
8:55 AM44.8 °F31.5 °F60 %30.18 in10.0 miNW (320°)8.1 mphClear
9:55 AM48.7 °F30.4 °F49 %30.18 in10.0 miNW (320°)8.1 mphClear
10:55 AM53.4 °F29.7 °F40 %30.17 in10.0 miNNW (330°)8.1 mphClear
11:55 AM56.8 °F28.0 °F33 %30.15 in10.0 miNW (320°)8.1 mphClear
12:55 PM60.3 °F25.3 °F26 %30.11 in10.0 miVariable5.8 mphClear
1:55 PM62.2 °F23.4 °F23 %30.06 in10.0 miCalmClear
2:55 PM64.8 °F20.8 °F19 %30.03 in8.0 miCalmClear
3:55 PM65.3 °F19.9 °F18 %30.00 in10.0 miSouth (170°)5.8 mphClear
4:55 PM66.0 °F20.3 °F17 %29.99 in10.0 miCalmClear
5:55 PM64.6 °F20.5 °F19 %29.99 in10.0 miSSW (210°)3.5 mphClear
6:55 PM61.3 °F21.7 °F22 %30.01 in10.0 miSW (230°)3.5 mphClear
7:55 PM55.9 °F21.2 °F26 %30.03 in10.0 miSW (220°)4.6 mphClear
8:55 PM50.4 °F21.7 °F33 %30.04 in10.0 miSW (220°)3.5 mphClear
9:55 PM52.2 °F21.6 °F30 %30.04 in10.0 miSouth (180°)4.6 mphClear
10:55 PM47.5 °F21.9 °F36 %30.04 in10.0 miCalmClear
11:55 PM43.2 °F21.2 °F42 %30.05 in10.0 miCalmClear
Hourly data recorded from KDLF, located miles away from Val Verde Park, Texas







STORIES FROM OUR PARTNERS